Location: Kapla
(46.2483°N, 15.0094°E)
Time: 18:24:19
(UTC+00:00)

Cosmos 1461 - Pass Details

Date: 03 March 2021
Orbit: 505 x 659 km, 65.0° (Epoch: 15 April)

Event Time Altitude Azimuth Distance (km) Brightness Sun altitude
Rises 17:29:19 0° 226° (SW) 2,959 7.3 -7.7°
Reaches altitude 10° 17:31:38 10° 230° (SW) 2,062 6.6 -8.1°
Maximum altitude 17:36:17 59° 310° (NW) 765 3.8 -8.9°
Drops below altitude 10° 17:40:58 10° 30° (NNE) 2,076 5.5 -9.8°
Sets 17:43:18 0° 34° (NE) 2,982 6.2 -10.2°
